Weather History for Marathon, FL

Change the Weather History Date:

Tuesday, December 4, 2012

  Actual Average Record
Temperature  
Mean Temperature 75 °F 74 °F  
Max Temperature 80 °F 78 °F 83 °F (2013)
Min Temperature 70 °F 69 °F 60 °F (2000)
Degree Days  
Heating Degree Days 0 0  
Month to date heating degree days 0 0  
Since 1 July heating degree days 1 1  
Cooling Degree Days 10 9  
Month to date cooling degree days 42 36  
Year to date cooling degree days 5027 4800  
Growing Degree Days 25 (Base 50)    
Moisture  
Dew Point 61 °F    
Average Humidity 62    
Maximum Humidity 78    
Minimum Humidity 46    
Precipitation  
Precipitation 0.04 in 0.06 in 0.04 in (1998)
Month to date precipitation 0.07 0.26  
Year to date precipitation 44.15 44.41  
Snow  
Snow 0.00 in - - ()
Month to date snowfall 0.0  
Since 1 July snowfall 0.0  
Snow Depth 0.00 in    
Sea Level Pressure  
Sea Level Pressure 30.15 in    
Wind  
Wind Speed 11 mph (ENE)    
Max Wind Speed 17 mph    
Max Gust Speed 24 mph    
Visibility 10 miles    
Events      
T = Trace of Precipitation, MM = Missing Value Source: NWS Daily Summary

Daily Weather History Graph

Daily Weather History Graph

Search for Another Location

Airport:

Trip Planner

Search our weather history database for the weather conditions in past years. The results will help you decide how hot, cold, wet, or windy it might be!

Date:

Astronomy

Dec. 04, 2012 Rise Set
Actual Time 6:54 AM EST 5:35 PM EST
Civil Twilight 6:29 AM EST 5:59 PM EST
Nautical Twilight 6:01 AM EST 6:28 PM EST
Astronomical Twilight 5:33 AM EST 6:55 PM EST
Moon 10:57 PM EST (12/4) 11:08 AM EST (12/4)
Length of Visible Light 11h 30m
Length of Day
10h 40m
Waning Gibbous, 69% of the Moon is Illuminated
Dec 4
Waning Gibbous
Dec 6
Last Quarter
Dec 13
New
Dec 20
First Quarter
Dec 28
Full

Hourly Weather History & Observations

Time (EST) Temp. Heat Index Dew Point Humidity Pressure Visibility Wind Dir Wind Speed Gust Speed Precip Events Conditions
1:53 AM 73.0 °F - 54.0 °F 51% 30.16 in 10.0 mi ENE 6.9 mph - N/A   Mostly Cloudy
2:53 AM 72.0 °F - 57.9 °F 61% 30.14 in 10.0 mi ENE 8.1 mph - N/A   Partly Cloudy
3:53 AM 71.1 °F - 62.1 °F 73% 30.14 in 10.0 mi NNE 9.2 mph - N/A   Mostly Cloudy
4:53 AM 71.1 °F - 63.0 °F 75% 30.14 in 10.0 mi NE 13.8 mph - 0.00 in   Mostly Cloudy
5:53 AM 71.1 °F - 62.1 °F 73% 30.15 in 10.0 mi NE 16.1 mph 21.9 mph N/A   Overcast
6:53 AM 70.0 °F - 62.1 °F 76% 30.16 in 10.0 mi NE 15.0 mph - N/A   Mostly Cloudy
7:53 AM 72.0 °F - 62.1 °F 71% 30.17 in 10.0 mi ENE 10.4 mph - 0.00 in   Mostly Cloudy
8:53 AM 73.0 °F - 63.0 °F 71% 30.18 in 10.0 mi NE 11.5 mph - N/A   Overcast
9:53 AM 73.0 °F - 63.0 °F 71% 30.20 in 10.0 mi NE 9.2 mph - N/A   Mostly Cloudy
10:53 AM 79.0 °F - 59.0 °F 50% 30.20 in 10.0 mi ENE 11.5 mph 20.7 mph N/A   Scattered Clouds
11:53 AM 80.1 °F 80.7 °F 59.0 °F 48% 30.18 in 10.0 mi East 9.2 mph 20.7 mph N/A   Clear
1:53 PM 77.0 °F - 61.0 °F 58% 30.13 in 10.0 mi NE 16.1 mph - N/A   Scattered Clouds
2:53 PM 77.0 °F - 60.1 °F 56% 30.12 in 10.0 mi East 11.5 mph 19.6 mph N/A   Scattered Clouds
3:53 PM 77.0 °F - 59.0 °F 54% 30.12 in 10.0 mi ENE 13.8 mph 21.9 mph N/A   Clear
4:53 PM 75.0 °F - 62.1 °F 64% 30.13 in 10.0 mi ENE 11.5 mph - N/A   Clear
5:53 PM 73.9 °F - 63.0 °F 68% 30.14 in 10.0 mi NE 15.0 mph - N/A   Clear
6:53 PM 73.0 °F - 61.0 °F 66% 30.14 in 10.0 mi ENE 12.7 mph - N/A   Clear
7:53 PM 73.0 °F - 62.1 °F 68% 30.15 in 10.0 mi NE 10.4 mph - N/A   Partly Cloudy
8:53 PM 73.0 °F - 62.1 °F 68% 30.15 in 10.0 mi ENE 8.1 mph - N/A   Partly Cloudy
9:53 PM 73.0 °F - 62.1 °F 68% 30.15 in 10.0 mi ENE 10.4 mph - N/A   Mostly Cloudy
10:53 PM 73.0 °F - 63.0 °F 71% 30.14 in 10.0 mi NE 9.2 mph - N/A   Scattered Clouds
11:53 PM 73.0 °F - 64.0 °F 73% 30.13 in 9.0 mi East 6.9 mph - 0.02 in   Overcast